STARLINK-1790 (46691 NORAD) Tracking and Keplerian Element Data

This shows tracking and keplerian element data for the satellite.

Feedback or suggestion? Click here.




ElementValue
Catalog46691
NameSTARLINK-1790
Epoch Orbit176
Epoch Day20.91667824
Epoch Year2021
RAAN13.3851
Inclination53.0443
Eccentricity0.0001647
Argument of Perigee63.037
Mean Anonmoly311.9407
Mean Motion15.06366535
Decay Rate0.00037811
L11 46691U 20073X 21020.91667824 .00037811 00000-0 25460-2 0 9995
L22 46691 53.0443 13.3851 0001647 63.0370 311.9407 15.06366535 1764

Live tracking and technical data element details for STARLINK-1790 (NORAD 46691). STARLINK-1790 can be tracked NOW for your location showing map with azimuth and elevation plus other details from your city location.

Track the satellite on the map from your city or location and see movement details for azimuth, elevation, latitude, longitude, range, height, and movement on the map or in text.







IsCatalogInMostPopularTable: catalog: 46691, numindb: 26
Update: records affected: 1



GetName: 46691 STARLINK-1790

Hit Count: updated at: Fri, 22 Jan 2021 15:51:58 GMT